TimeEST,TemperatureF,Dew PointF,Humidity,Sea Level PressureIn,VisibilityMPH,Wind Direction,Wind SpeedMPH,Gust SpeedMPH,PrecipitationIn,Events,Conditions,WindDirDegrees,DateUTC
12:51 AM,25.0,21.0,85,29.82,10.0,Variable,6.9,-,N/A,,Overcast,0,2013-02-13 05:51:00
1:51 AM,25.0,21.9,88,29.81,10.0,WSW,4.6,-,N/A,,Overcast,240,2013-02-13 06:51:00
2:51 AM,24.1,21.9,91,29.82,9.0,SW,6.9,-,N/A,,Overcast,230,2013-02-13 07:51:00
3:51 AM,24.1,21.0,88,29.82,8.0,SW,8.1,-,0.00,,Overcast,230,2013-02-13 08:51:00
4:51 AM,24.1,21.9,91,29.82,7.0,WSW,5.8,-,0.00,,Overcast,240,2013-02-13 09:51:00
5:51 AM,24.1,21.9,91,29.82,7.0,WSW,4.6,-,N/A,,Overcast,250,2013-02-13 10:51:00
6:51 AM,24.1,21.9,91,29.81,3.0,WSW,4.6,-,0.00,Snow,Light Snow,240,2013-02-13 11:51:00
7:27 AM,24.8,21.2,86,29.75,2.5,Calm,Calm,-,0.00,Snow,Light Snow,0,2013-02-13 12:27:00
7:51 AM,24.1,21.9,91,29.81,4.0,Calm,Calm,-,0.00,,Overcast,0,2013-02-13 12:51:00
8:01 AM,24.8,21.2,86,29.74,4.0,Calm,Calm,-,N/A,,Overcast,0,2013-02-13 13:01:00
8:24 AM,24.8,21.2,86,29.75,2.5,SW,4.6,-,0.00,Snow,Light Snow,230,2013-02-13 13:24:00
8:38 AM,24.8,21.2,86,29.75,1.8,WSW,3.5,-,0.00,Snow,Light Snow,250,2013-02-13 13:38:00
8:48 AM,24.8,21.2,86,29.75,2.0,WSW,5.8,-,0.00,Snow,Light Snow,240,2013-02-13 13:48:00
8:51 AM,24.1,21.9,91,29.82,2.0,SW,6.9,-,0.00,Snow,Light Snow,220,2013-02-13 13:51:00
9:01 AM,24.8,21.2,86,29.75,2.0,SW,6.9,-,0.00,Snow,Light Snow,220,2013-02-13 14:01:00
9:09 AM,24.8,21.2,86,29.75,1.8,SW,5.8,-,0.00,Snow,Light Snow,230,2013-02-13 14:09:00
9:23 AM,24.8,21.2,86,29.75,1.8,SW,5.8,-,0.00,Snow,Light Snow,220,2013-02-13 14:23:00
9:32 AM,24.8,23.0,93,29.74,1.8,SW,8.1,-,0.00,Snow,Light Snow,220,2013-02-13 14:32:00
9:41 AM,24.8,23.0,93,29.74,2.0,SW,5.8,-,0.00,Snow,Light Snow,230,2013-02-13 14:41:00
9:51 AM,25.0,21.9,88,29.81,2.5,SW,6.9,-,0.00,Snow,Light Snow,220,2013-02-13 14:51:00
9:57 AM,26.6,23.0,86,29.74,2.0,SSW,8.1,-,0.00,Snow,Light Snow,210,2013-02-13 14:57:00
9:59 AM,26.6,21.2,80,29.74,2.0,SW,9.2,-,0.00,Snow,Light Snow,220,2013-02-13 14:59:00
10:06 AM,26.6,21.2,80,29.74,3.0,SW,5.8,-,0.00,,Overcast,230,2013-02-13 15:06:00
10:51 AM,26.1,21.9,84,29.80,6.0,SW,6.9,-,0.00,,Overcast,220,2013-02-13 15:51:00
11:51 AM,27.0,21.0,78,29.79,7.0,SSW,6.9,-,N/A,,Overcast,210,2013-02-13 16:51:00
12:12 PM,26.6,21.2,80,29.71,3.0,SW,6.9,-,0.00,Snow,Light Snow,220,2013-02-13 17:12:00
12:35 PM,26.6,21.2,80,29.70,7.0,SW,8.1,-,0.00,,Overcast,220,2013-02-13 17:35:00
12:51 PM,27.0,21.0,78,29.77,5.0,SW,8.1,-,0.00,Snow,Light Snow,220,2013-02-13 17:51:00
1:26 PM,28.4,21.2,74,29.70,10.0,SW,4.6,-,0.00,,Overcast,230,2013-02-13 18:26:00
1:51 PM,28.0,21.0,75,29.75,10.0,SSW,5.8,-,0.00,,Overcast,200,2013-02-13 18:51:00
2:51 PM,28.0,21.0,75,29.74,10.0,West,3.5,-,N/A,,Overcast,260,2013-02-13 19:51:00
3:51 PM,28.0,19.9,72,29.74,10.0,SW,5.8,-,N/A,,Overcast,220,2013-02-13 20:51:00
4:51 PM,28.0,21.0,75,29.73,9.0,WSW,3.5,-,0.00,,Overcast,240,2013-02-13 21:51:00
5:51 PM,27.0,21.9,81,29.74,7.0,Calm,Calm,-,0.00,Snow,Light Snow,0,2013-02-13 22:51:00
6:51 PM,27.0,21.9,81,29.73,10.0,Calm,Calm,-,0.00,,Overcast,0,2013-02-13 23:51:00
7:51 PM,26.1,21.9,84,29.74,10.0,Calm,Calm,-,N/A,,Overcast,0,2013-02-14 00:51:00
8:51 PM,25.0,21.0,85,29.74,10.0,Calm,Calm,-,N/A,,Overcast,0,2013-02-14 01:51:00
9:51 PM,24.1,21.9,91,29.75,10.0,Calm,Calm,-,N/A,,Overcast,0,2013-02-14 02:51:00
10:51 PM,23.0,21.0,92,29.74,10.0,Calm,Calm,-,N/A,,Overcast,0,2013-02-14 03:51:00
11:51 PM,23.0,21.0,92,29.75,9.0,Calm,Calm,-,N/A,,Overcast,0,2013-02-14 04:51:00